Location: Zlin
(49.2330°N, 17.6670°E)
Time: 16:34:24
(UTC+02:00)

ISS - Visible Passes

Search period start: 28 September 2023 00:00
Search period end: 08 October 2023 00:00
Orbit: 413 x 421 km, 51.6° (Epoch: 28 September)

Date Brightness Start Highest point End Pass type
(mag) Time Alt. Az. Time Alt. Az. Time Alt. Az.
28 Sep -3.6 20:05:36 10° WNW 20:08:55 63° SSW 20:10:02 37° SE visible
29 Sep -3.8 19:17:19 10° WNW 19:20:40 86° SSW 19:23:42 12° ESE visible
29 Sep -1.6 20:54:30 10° W 20:56:37 20° SW 20:56:37 20° SW visible
30 Sep -2.3 20:05:54 10° W 20:08:54 31° SW 20:10:18 22° S visible
01 Oct -2.9 19:17:25 10° WNW 19:20:37 45° SSW 19:23:49 10° SE visible
02 Oct -1.1 20:06:34 10° WSW 20:08:29 15° SW 20:10:25 10° S visible
03 Oct -1.5 19:17:33 10° W 19:20:12 22° SW 19:22:50 10° SSE visible
